Regional Weather Roundup
Issued by NWS

Home | Current Version | Previous Version | Graphics & Text | Print | Product List | Glossary Off
Versions: 1 2 3 4 5 6 7 8 9 10 11 12 13 14 15 16 17 18 19 20 21 22 23 24 25 26 27 28 29 30 31 32 33 34 35 36 37 38 39 40 41 42 43 44 45 46 47 48 49 50

137
ASUS43 KMKX 251010
RWRWI

WISCONSIN REGIONAL WEATHER ROUNDUP
NATIONAL WEATHER SERVICE MILWAUKEE/SULLIVAN WI
500 AM CDT THU MAY 25 2017

NOTE: "FAIR" INDICATES FEW OR NO CLOUDS BELOW 12,000 FEET WITH NO
SIGNIFICANT WEATHER AND/OR OBSTRUCTIONS TO VISIBILITY.

WIZ001-002-006>008-014>016-023>028-251100-
NORTHWEST WISCONSIN

CITY           SKY/WX    TMP DP  RH WIND       PRES   REMARKS
SUPERIOR ARPT  NOT AVBL
ASHLAND        CLOUDY    40  39  97 CALM      29.75F
HAYWARD        CLOUDY    43  41  93 CALM      29.73R
SIREN          PTCLDY    44  43  96 CALM      29.72F
CUMBERLAND     CLOUDY    48  46  93 E3        29.72S
RICE LAKE      CLOUDY    51  48  89 CALM      29.74R
CHETEK         CLOUDY    52  48  86 CALM      29.72S
LADYSMITH      CLOUDY    52  48  87 E5        29.74R
EAU CLAIRE     CLOUDY    52  49  89 NE3       29.71R
MENOMONIE      CLOUDY    49  48  96 CALM      29.71S
NEW RICHMOND     N/A     43  42  98 CALM      29.71S FOG
OSCEOLA        CLEAR     45  45 100 SE5       29.74R
$$

WIZ003>005-009-010-017-018-251100-
NORTH CENTRAL WISCONSIN

CITY           SKY/WX    TMP DP  RH WIND       PRES   REMARKS
MANITOWISH WTR CLOUDY    46  46 100 NE3       29.74R
ARBOR VITAE    CLOUDY    49  47  93 CALM      29.73S
WOODRUFF       CLOUDY    49  47  93 CALM      29.73S
RHINELANDER    MOCLDY    48  45  89 NE3       29.73S
EAGLE RIVER    CLOUDY    47  46  96 CALM      29.73S
LAND O LAKES   CLOUDY    47  45  93 NE3       29.76S
PHILLIPS       CLOUDY    48  48  98 CALM      29.73R
TOMAHAWK       CLOUDY    44  43  97 CALM      29.72F FOG
MEDFORD        CLEAR     44  43  99 NE5       29.71S
MERRILL        CLOUDY    48  48 100 N3        29.71S
$$

WIZ029-030-035-036-043>047-251100-
CENTRAL WISCONSIN

CITY           SKY/WX    TMP DP  RH WIND       PRES   REMARKS
WAUSAU         CLOUDY    50  47  89 N5        29.69S
MOSINEE        CLOUDY    46  46 100 N7        29.71R
MARSHFIELD     CLEAR     48  45  89 NE7       29.69S
STEVENS POINT  CLEAR     43  43 100 CALM      29.69S FOG
WAUPACA        CLEAR     49  48  97 N5        29.68S
WAUTOMA        CLOUDY    52  49  89 N7        29.68S
WISC RAPIDS    CLOUDY    51  48  89 NE6       29.70S
CAMP DOUGLAS   CLOUDY    52  50  93 N3        29.69R
$$

WIZ011>013-019>022-031-037>040-048>050-251100-
NORTHEAST WISCONSIN

CITY           SKY/WX    TMP DP  RH WIND       PRES   REMARKS
ANTIGO         MOCLDY    45  45 100 NE7       29.71S
SHAWANO        PTCLDY    51  48  89 N5        29.69S
OCONTO         CLEAR     49  47  90 N5        29.66S
STURGEON BAY   PTCLDY    48  47  96 N6        29.67R
GREEN BAY      CLEAR     48  48 100 N6        29.66S
MANITOWOC      MOCLDY    52  48  86 N9        29.64R
APPLETON       CLEAR     46  46 100 N9        29.64F
CLINTONVILLE   CLEAR     48  46  93 N7        29.68S
OSHKOSH        CLOUDY    52  48  86 N9        29.65S
$$

WIZ032>034-041-042-053>061-251100-
SOUTHWEST WISCONSIN

CITY           SKY/WX    TMP DP  RH WIND       PRES   REMARKS
LA CROSSE      PTCLDY    48  47  96 CALM      29.69S FOG
SPARTA         CLOUDY    46  46 100 CALM      29.70F
VIROQUA        CLOUDY    51  49  91 MISG      29.68F
BOSCOBEL       CLOUDY    55  49  80 N5        29.68S
PRAIRIE DU CHI CLOUDY    51  48  87 CALM      29.68S
PLATTEVILLE    CLOUDY    53  52  97 N8        29.67S
$$

WIZ056-057-062-063-064-067-068-251100-
SOUTH CENTRAL WISCONSIN

CITY           SKY/WX    TMP DP  RH WIND       PRES   REMARKS
REEDSBURG      CLOUDY    52  51  97 N6        29.67S
BARABOO/DELLS  CLOUDY    52  49  89 N3        29.67S
LONE ROCK      CLOUDY    55  49  80 N6        29.67S
MINERAL POINT  CLOUDY    54  52  94 N7        29.66S
MADISON        CLOUDY    52  50  93 N10       29.64S
MIDDLETON      CLOUDY    54  53  95 N6        29.66S
WATERTOWN      CLOUDY    52  52 100 N8        29.63R
MONROE         CLOUDY    52  50  93 N7        29.64R
JANESVILLE     CLOUDY    54  54 100 N8        29.62R
$$

WIZ051-052-058>065-066-070>072-251100-
SOUTHEAST WISCONSIN

CITY           SKY/WX    TMP DP  RH WIND       PRES   REMARKS
MILWAUKEE      CLOUDY    53  50  89 N12       29.59R
WAUKESHA       CLOUDY    50  48  93 N5        29.62R
MILWAUKEE/TIMM   N/A     50  45  81 N7        29.61S
RACINE         CLOUDY    51  48  89 N15       29.60R
KENOSHA        CLEAR     52  49  89 N8        29.58R
FOND DU LAC    CLOUDY    54  49  83 N12       29.64F
SHEBOYGAN      PTCLDY    51  50  96 N9        29.62S
WEST BEND      CLOUDY    52  50  93 N12       29.61F
JUNEAU         CLOUDY    51  49  92 N7G16     29.64S
$$

LSZ147-162-251100-
LAKE SUPERIOR

STATION/POSITION TIME  TEMP    WIND        PRES    WAVE
                       AIR SEA DIR/SP/G            HT/PER
                 (UTC) (F)     (DEG/KT/KT) (MB)    (FT/S)
$$

LMZ867-665-643>646-251100-
LAKE MICHIGAN

STATION/POSITION TIME  TEMP    WIND        PRES    WAVE
                       AIR SEA DIR/SP/G            HT/PER
                 (UTC) (F)     (DEG/KT/KT) (MB)    (FT/S)
$$

TC  - TEMPERATURE IN CELSIUS
VSB - VISIBILITY IN STATUTE MILES
WCI - WIND CHILL INDEX
HX  - HEAT INDEX





USA.gov is the U.S. government's official web portal to all federal, state and local government web resources and services.